Home   Weather   Phoenix   Past weeks
Flag for USA

Past Weather in Phoenix, Arizona, USA — August 2019

Now
75 °F

Partly sunny.


Feels Like: 76 °F
Forecast: 78 / 50 °F
Wind: 7 mph from Northeast

Location: Phoenix Sky Harbor International Airport

Current Time: Feb 28, 2020 at 6:30:41 pm

Latest Report: Feb 28, 2020 at 5:51 pm


Visibility: 10 mi

Pressure: 30.03 "Hg

Humidity: 18%

Dew Point: 28 °F

Location of PhoenixLocation

August 2019 Weather in Phoenix — Graph

°F

High & Low Weather Summary for August 2019

 TemperatureHumidityPressure
High115 °F (Aug 5, 3:51 pm)82% (Aug 28, 10:05 pm)30.00 "Hg (Aug 28, 10:05 pm)
Low79 °F (Aug 28, 10:51 pm)3% (Aug 15, 3:51 pm)29.55 "Hg (Aug 22, 5:51 pm)
Average97 °F28%29.76 "Hg
* Reported Aug 1 12:51 am — Aug 31 11:51 pm, Phoenix. Weather by CustomWeather, © 2020

Note: Actual official high and low records may vary slightly from our data, if they occured in-between our weather recording intervals... More about our weather records

Phoenix Weather History for August 1, 2019

Scroll right to see more
 ConditionsComfort  
Time TempWeatherWind HumidityBarometerVisibility
12:51 am
Thu, Aug 1
86 °FPassing clouds.9 mph57%29.85 "Hg10 mi
1:51 am85 °FPassing clouds.8 mph63%29.85 "Hg10 mi
2:51 am84 °FClear.8 mph70%29.85 "Hg10 mi
3:51 am84 °FClear.8 mph70%29.85 "Hg10 mi
4:51 am84 °FPassing clouds.3 mph67%29.86 "Hg10 mi
5:51 am83 °FPassing clouds.6 mph77%29.87 "Hg10 mi
6:51 am85 °FPassing clouds.6 mph68%29.89 "Hg10 mi
7:51 am87 °FPassing clouds.6 mph59%29.91 "Hg10 mi
8:51 am90 °FPassing clouds.7 mph54%29.91 "Hg10 mi
9:51 am94 °FPassing clouds.3 mph43%29.91 "Hg10 mi
10:51 am95 °FPassing clouds.No wind41%29.90 "Hg10 mi
11:51 am97 °FPassing clouds.3 mph36%29.88 "Hg10 mi
12:51 pm100 °FPassing clouds.6 mph29%29.85 "Hg10 mi
1:59 pm103 °FPassing clouds.6 mph27%29.89 "Hg10 mi
2:51 pm102 °FScattered clouds.No wind27%29.79 "Hg10 mi
3:51 pm103 °FScattered clouds.5 mph26%29.76 "Hg10 mi
4:51 pm103 °FScattered clouds.3 mph25%29.75 "Hg10 mi
5:51 pm103 °FScattered clouds.No wind24%29.73 "Hg10 mi
6:51 pm103 °FPartly sunny.6 mph24%29.74 "Hg10 mi
7:51 pm101 °FPassing clouds.6 mph26%29.75 "Hg10 mi
8:51 pm100 °FPassing clouds.5 mph27%29.77 "Hg10 mi
9:51 pm99 °FPassing clouds.No wind28%29.78 "Hg10 mi
10:51 pm98 °FPassing clouds.No wind29%29.77 "Hg10 mi
11:51 pm97 °FPassing clouds.No wind32%29.77 "Hg10 mi
Weather by CustomWeather, © 2020

See weather overview

Advertising